Location: Home
(42.5358°N, 72.7383°W)
Time: 15:59:30
(UTC-04:00)

Kosmos-337 - Pass Details

Date: 08 July 2022
Orbit: 1467 x 1552 km, 74.0° (Epoch: 18 August)

Event Time Altitude Azimuth Distance (km) Brightness Sun altitude
Rises 22:27:02 0° 342° (NNW) 4,733 ? -16.5°
Reaches altitude 10° 22:32:05 10° 5° (N) 3,744 ? -17.1°
Maximum altitude 22:36:46 15° 37° (NE) 3,371 ? -17.6°
Drops below altitude 10° 22:41:25 10° 68° (ENE) 3,719 ? -18.0°
Sets 22:46:21 0° 91° (E) 4,682 ? -18.5°
